1486803600.2,6108,10.19,73792.5,-4.25,-8.63,-9.31,0,*6A
1486803601.43,6109,10.19,73794.8,-4.25,-8.75,-9.37,0,*6A
1486803602.67,6110,10.19,73792.8,-4.25,-8.81,-9.57,0,*6F
1486803603.92,6111,10.19,73794.8,-4.27,-8.89,-9.61,0,*61
1486803605.16,6112,10.25,73792.3,-4.25,-8.81,-9.57,0,*6D
1486803606.42,6113,10.19,73794.0,-4.27,-8.89,-9.57,0,*66
1486803607.67,6114,10.19,73792.8,-4.27,-8.89,-9.49,0,*6E
1486803608.92,6115,10.25,73794.3,-4.27,-8.75,-9.49,0,*6C
1486803610.17,6116,10.19,73792.8,-4.27,-8.75,-9.49,0,*6F
1486803611.41,6117,10.19,73792.5,-4.25,-8.81,-9.49,0,*67
1486803612.66,6118,10.19,73794.3,-4.27,-8.67,-9.37,0,*6B
1486803613.88,6119,10.19,73790.8,-4.25,-8.67,-9.37,0,*68
1486803615.11,6120,10.19,73792.5,-4.25,-8.55,-9.45,0,*66
1486803616.33,6121,10.25,73794.0,-4.27,-8.63,-9.31,0,*63
1486803617.52,6122,10.19,73792.0,-4.25,-8.63,-9.31,0,*62
1486803618.72,6123,10.19,73792.0,-4.25,-8.63,-9.31,0,*63
1486803619.93,6124,10.19,73794.8,-4.27,-8.67,-9.31,0,*62
1486803621.13,6125,10.25,73794.3,-4.25,-8.63,-9.27,0,*62
1486803622.35,6126,10.25,73794.0,-4.27,-8.55,-9.31,0,*61
1486803623.6,6127,10.25,73796.3,-4.27,-8.51,-9.31,0,*64
1486803624.82,6128,10.25,73796.5,-4.25,-8.51,-9.27,0,*6E
1486803626.05,6129,10.25,73792.3,-4.25,-8.51,-9.27,0,*6F
1486803627.26,6130,10.19,73794.5,-4.25,-8.51,-9.31,0,*60
1486803628.48,6131,10.25,73794.0,-4.27,-8.63,-9.31,0,*62
1486803629.68,6132,10.25,73792.3,-4.25,-8.55,-9.27,0,*61
1486803630.88,6133,10.25,73794.8,-4.25,-8.55,-9.31,0,*67
1486803632.07,6134,10.25,73798.3,-4.25,-8.55,-9.31,0,*60
1486803633.29,6135,10.19,73792.8,-4.27,-8.55,-9.31,0,*63
1486803634.49,6136,10.25,73794.3,-4.25,-8.45,-9.27,0,*64
1486803635.71,6137,10.25,73796.8,-4.25,-8.51,-9.31,0,*67
1486803636.93,6138,10.25,73794.3,-4.27,-8.45,-9.19,0,*65
1486803638.13,6139,10.19,73788.8,-4.25,-8.45,-9.19,0,*66
1486803639.32,6140,10.25,73792.5,-4.25,-8.37,-9.19,0,*6D
1486803640.54,6141,10.25,73794.3,-4.25,-8.37,-9.15,0,*60
1486803641.74,6142,10.25,73792.5,-4.25,-8.45,-9.19,0,*6A
1486803642.96,6143,10.19,73788.8,-4.25,-8.51,-9.19,0,*6E
1486803644.16,6144,10.25,73792.0,-4.25,-8.45,-9.19,0,*6C
1486803645.38,6145,10.25,73790.5,-4.25,-8.45,-9.15,0,*61
1486803646.57,6146,10.25,73794.0,-4.25,-8.45,-9.19,0,*6E
1486803647.77,6147,10.25,73794.0,-4.25,-8.37,-9.19,0,*6A
1486803648.99,6148,10.25,73792.8,-4.25,-8.33,-9.15,0,*6D
1486803650.21,6149,10.25,73794.5,-4.25,-8.37,-9.15,0,*68
1486803651.42,6150,10.25,73792.3,-4.25,-8.33,-9.15,0,*64
1486803652.62,6151,10.25,73790.3,-4.25,-8.25,-9.05,0,*63
1486803653.82,6152,10.25,73794.0,-4.25,-8.25,-9.01,0,*64
1486803655.07,6153,10.25,73792.0,-4.23,-8.41,-9.11,0,*60
1486803656.31,6154,10.25,73792.0,-4.23,-8.29,-9.11,0,*69
1486803657.54,6155,10.25,73788.0,-4.21,-8.29,-9.11,0,*6A
1486803658.76,6156,10.25,73790.8,-4.21,-8.29,-9.11,0,*69
1486803660.01,6157,10.25,73788.0,-4.23,-8.29,-9.11,0,*6A
1486803661.25,6158,10.25,73788.8,-4.23,-8.33,-9.11,0,*6E
1486803662.49,6159,10.25,73790.0,-4.23,-8.33,-9.11,0,*6F
1486803663.71,6160,10.25,73790.5,-4.21,-8.41,-9.15,0,*66
1486803664.96,6161,10.25,73792.0,-4.23,-8.41,-9.15,0,*65
1486803666.18,6162,10.25,73786.5,-4.21,-8.45,-9.15,0,*60
1486803667.4,6163,10.19,73784.0,-4.23,-8.45,-9.23,0,*66
1486803668.6,6164,10.25,73786.8,-4.21,-8.63,-9.27,0,*63
1486803669.8,6165,10.25,73786.5,-4.21,-8.59,-9.27,0,*6B
1486803671.05,6166,10.25,73786.0,-4.23,-8.51,-9.23,0,*66
1486803672.27,6167,10.25,73788.0,-4.21,-8.51,-9.23,0,*65
1486803673.5,6168,10.25,73788.0,-4.21,-8.59,-9.41,0,*66
1486803674.72,6169,10.25,73788.8,-4.21,-8.59,-9.41,0,*67
1486803675.95,6170,10.25,73790.5,-4.21,-8.59,-9.41,0,*6F
1486803677.22,6171,10.25,73790.0,-4.23,-8.51,-9.41,0,*64
1486803678.44,6172,10.25,73786.5,-4.23,-8.45,-9.31,0,*65
1486803679.66,6173,10.25,73788.3,-4.21,-8.51,-9.31,0,*63
1486803680.89,6174,10.25,73788.8,-4.21,-8.51,-9.27,0,*63
1486803682.11,6175,10.25,73788.5,-4.21,-8.51,-9.27,0,*62
1486803683.31,6176,10.25,73788.8,-4.21,-8.45,-9.23,0,*60
1486803684.51,6177,10.25,73788.5,-4.21,-8.41,-9.23,0,*65
1486803685.71,6178,10.25,73788.0,-4.21,-8.41,-9.23,0,*6A
1486803686.94,6179,10.25,73788.5,-4.21,-8.41,-9.11,0,*6A
1486803688.17,6180,10.25,73790.0,-4.23,-8.33,-9.15,0,*6F
1486803689.4,6181,10.25,73794.5,-4.21,-8.33,-9.11,0,*68
1486803690.62,6182,10.25,73788.5,-4.21,-8.33,-9.11,0,*6B
1486803691.84,6183,10.25,73788.8,-4.21,-8.33,-9.11,0,*6A
1486803693.06,6184,10.25,73790.3,-4.19,-8.25,-9.05,0,*64
1486803694.3,6185,10.25,73788.3,-4.23,-8.29,-9.15,0,*61
1486803695.52,6186,10.25,73786.8,-4.21,-8.33,-9.11,0,*6F
1486803696.74,6187,10.25,73788.8,-4.21,-8.33,-9.11,0,*6E
1486803697.97,6188,10.25,73788.5,-4.21,-8.41,-9.15,0,*60
1486803699.19,6189,10.25,73784.8,-4.21,-8.41,-9.15,0,*61
1486803700.41,6190,10.25,73786.5,-4.21,-8.33,-9.11,0,*68
1486803701.64,6191,10.25,73792.0,-4.21,-8.41,-9.15,0,*68
1486803702.84,6192,10.25,73792.5,-4.17,-8.37,-9.05,0,*6E
1486803704.08,6193,10.25,73790.3,-4.19,-8.29,-9.11,0,*6B
1486803705.28,6194,10.25,73786.5,-4.17,-8.33,-9.05,0,*6C
1486803706.5,6195,10.25,73790.8,-4.19,-8.29,-9.05,0,*68
1486803707.7,6196,10.25,73790.8,-4.17,-8.21,-9.01,0,*69
1486803708.95,6197,10.25,73788.3,-4.19,-8.29,-9.11,0,*6F
1486803710.15,6198,10.25,73788.3,-4.17,-8.25,-9.05,0,*67
1486803711.37,6199,10.25,73790.8,-4.19,-8.25,-9.05,0,*68
1486803712.59,6200,10.25,73790.0,-4.19,-8.17,-9.05,0,*6A
1486803713.82,6201,10.25,73788.3,-4.19,-8.17,-8.97,0,*61
1486803715.04,6202,10.25,73792.0,-4.19,-8.25,-8.97,0,*63
1486803716.24,6203,10.25,73790.3,-4.17,-8.21,-8.93,0,*6C
1486803717.46,6204,10.25,73794.0,-4.19,-8.25,-8.97,0,*65
1486803718.68,6205,10.25,73792.5,-4.19,-8.25,-8.97,0,*64
1486803719.91,6206,10.25,73792.8,-4.19,-8.25,-8.97,0,*67
1486803721.11,6207,10.25,73790.8,-4.17,-8.25,-8.97,0,*68
1486803722.34,6208,10.25,73794.0,-4.17,-8.11,-9.01,0,*6E
1486803723.56,6209,10.25,73792.8,-4.19,-8.25,-9.05,0,*62
1486803724.78,6210,10.25,73792.3,-4.19,-8.25,-9.05,0,*6A
1486803725.98,6211,10.25,73790.0,-4.17,-8.21,-9.05,0,*61
1486803727.2,6212,10.25,73794.3,-4.19,-8.29,-9.05,0,*64
1486803728.45,6213,10.25,73792.3,-4.19,-8.29,-9.11,0,*60
1486803729.65,6214,10.25,73794.5,-4.17,-8.25,-9.05,0,*60
1486803730.87,6215,10.25,73792.5,-4.17,-8.33,-9.15,0,*67
1486803732.08,6216,10.25,73792.3,-4.17,-8.33,-9.15,0,*64
1486803733.31,6217,10.25,73792.3,-4.17,-8.37,-9.15,0,*61
1486803734.53,6218,10.25,73792.3,-4.17,-8.37,-9.15,0,*6E
1486803735.73,6219,10.25,73790.3,-4.17,-8.41,-9.19,0,*62
1486803736.93,6220,10.25,73788.5,-4.17,-8.41,-9.23,0,*61
1486803738.15,6221,10.25,73792.5,-4.15,-8.41,-9.23,0,*62
1486803739.37,6222,10.25,73788.8,-4.15,-8.41,-9.23,0,*61
1486803740.6,6223,10.25,73790.5,-4.15,-8.41,-9.19,0,*69
1486803741.79,6224,10.25,73788.8,-4.13,-8.29,-9.19,0,*66
1486803742.99,6225,10.25,73788.5,-4.17,-8.37,-9.19,0,*6C
1486803744.21,6226,10.25,73784.0,-4.17,-8.33,-9.15,0,*67
1486803745.42,6227,10.25,73786.3,-4.17,-8.33,-9.15,0,*66
1486803746.63,6228,10.25,73786.8,-4.17,-8.37,-9.05,0,*6C
1486803747.84,6229,10.25,73786.5,-4.17,-8.33,-9.15,0,*68
1486803749.06,6230,10.25,73788.8,-4.17,-8.33,-9.15,0,*60
1486803750.31,6231,10.25,73784.5,-4.15,-8.37,-9.15,0,*67
1486803751.53,6232,10.25,73790.8,-4.15,-8.33,-9.05,0,*61
1486803752.75,6233,10.25,73790.5,-4.15,-8.25,-9.05,0,*67
1486803753.98,6234,10.25,73792.3,-4.15,-8.25,-9.05,0,*60
1486803755.22,6235,10.25,73786.5,-4.15,-8.37,-9.15,0,*63
1486803756.44,6236,10.25,73792.5,-4.15,-8.55,-9.31,0,*62
1486803757.67,6237,10.25,73792.5,-4.13,-8.51,-9.31,0,*61
1486803758.89,6238,10.25,73794.8,-4.15,-8.41,-9.23,0,*6A
1486803760.11,6239,10.25,73794.3,-4.15,-8.41,-9.19,0,*62
1486803761.36,6240,10.25,73790.0,-4.15,-8.37,-9.15,0,*61
1486803762.61,6241,10.25,73794.8,-4.15,-8.37,-9.15,0,*60
1486803763.85,6242,10.25,73792.8,-4.15,-8.33,-9.15,0,*67
1486803765.1,6243,10.25,73794.5,-4.15,-8.37,-9.15,0,*62
1486803766.34,6244,10.25,73794.3,-4.15,-8.37,-9.15,0,*65
1486803767.56,6245,10.25,73788.3,-4.15,-8.33,-9.19,0,*6C
1486803768.81,6246,10.25,73790.3,-4.15,-8.51,-9.23,0,*62
1486803770.01,6247,10.25,73790.0,-4.13,-8.45,-9.19,0,*69
1486803771.23,6248,10.25,73792.8,-4.13,-8.33,-9.11,0,*6F
1486803772.43,6249,10.25,73792.5,-4.13,-8.37,-9.27,0,*6F
1486803773.71,6250,10.25,73788.5,-4.15,-8.51,-9.37,0,*60
1486803774.91,6251,10.25,73790.0,-4.13,-8.37,-9.19,0,*6B
1486803776.11,6252,10.25,73792.0,-4.13,-8.37,-9.19,0,*68
1486803777.33,6253,10.31,73792.8,-4.15,-8.41,-9.19,0,*6E
1486803778.56,6254,10.25,73790.8,-4.15,-8.37,-9.19,0,*68
1486803779.8,6255,10.25,73788.3,-4.15,-8.33,-9.15,0,*61
1486803781.04,6256,10.25,73792.0,-4.15,-8.33,-9.15,0,*62
1486803782.24,6257,10.25,73790.3,-4.13,-8.25,-9.05,0,*63
1486803783.46,6258,10.25,73790.3,-4.15,-8.25,-9.05,0,*6A
1486803784.69,6259,10.25,73788.8,-4.15,-8.25,-9.01,0,*6F
1486803785.91,6260,10.25,73792.5,-4.13,-8.29,-9.11,0,*6E
1486803787.14,6261,10.25,73788.3,-4.13,-8.29,-9.11,0,*6F
1486803788.38,6262,10.25,73792.3,-4.15,-8.25,-9.15,0,*62
1486803789.63,6263,10.25,73788.5,-4.15,-8.33,-9.11,0,*60
1486803790.85,6264,10.31,73792.3,-4.13,-8.29,-9.11,0,*6A
1486803792.08,6265,10.25,73790.5,-4.13,-8.29,-9.11,0,*6B
1486803793.3,6266,10.25,73792.0,-4.13,-8.33,-9.11,0,*63
1486803794.54,6267,10.25,73794.3,-4.15,-8.33,-9.15,0,*60
1486803795.74,6268,10.25,73788.8,-4.13,-8.29,-9.01,0,*67
1486803796.94,6269,10.31,73794.0,-4.13,-8.21,-9.01,0,*6E
1486803798.14,6270,10.25,73794.5,-4.13,-8.29,-9.01,0,*6E
1486803799.36,6271,10.25,73794.5,-4.13,-8.33,-9.11,0,*65
1486803800.59,6272,10.25,73796.0,-4.13,-8.29,-9.11,0,*6D
1486803801.79,6273,10.25,73796.3,-4.13,-8.29,-9.01,0,*6D
1486803803.01,6274,10.25,73798.0,-4.11,-8.17,-9.01,0,*65
1486803804.23,6275,10.25,73796.3,-4.11,-8.17,-9.01,0,*64
1486803805.45,6276,10.25,73798.3,-4.11,-8.17,-8.97,0,*69
1486803806.67,6277,10.25,73794.5,-4.11,-8.21,-8.97,0,*6D
1486803807.89,6278,10.31,73796.8,-4.11,-8.21,-9.01,0,*6C
1486803809.09,6279,10.25,73798.5,-4.09,-8.21,-9.01,0,*64
1486803810.3,6280,10.25,73796.8,-4.11,-8.21,-8.97,0,*65
1486803811.52,6281,10.31,73798.8,-4.11,-8.17,-8.97,0,*61
1486803812.74,6282,10.31,73798.0,-4.11,-8.17,-8.97,0,*62
1486803813.94,6283,10.25,73790.3,-4.09,-8.17,-8.97,0,*6A
1486803815.16,6284,10.31,73796.3,-4.11,-8.17,-9.01,0,*6A
1486803816.38,6285,10.31,73798.0,-4.11,-8.21,-9.01,0,*6E
1486803817.6,6286,10.25,73794.3,-4.11,-8.17,-8.97,0,*66
1486803818.8,6287,10.31,73798.0,-4.09,-8.21,-9.01,0,*65
1486803819.99,6288,10.31,73798.5,-4.09,-8.21,-9.01,0,*6A
1486803821.19,6289,10.31,73796.8,-4.09,-8.17,-9.01,0,*6E
1486803822.41,6290,10.31,73796.8,-4.11,-8.17,-9.01,0,*6F
1486803823.6,6291,10.31,73796.5,-4.09,-8.21,-8.97,0,*6C
1486803824.8,6292,10.31,73796.0,-4.09,-8.17,-9.01,0,*64
1486803826.0,6293,10.31,73798.8,-4.09,-8.17,-9.01,0,*65
1486803827.19,6294,10.31,73798.5,-4.09,-8.21,-9.01,0,*67
1486803828.39,6295,10.31,73796.8,-4.09,-8.17,-9.01,0,*63
1486803829.59,6296,10.31,73796.5,-4.09,-8.17,-9.01,0,*60
1486803830.79,6297,10.31,73796.5,-4.09,-8.21,-9.01,0,*64
1486803832.01,6298,10.31,73798.8,-4.05,-8.11,-8.93,0,*6E
1486803833.24,6299,10.31,73798.8,-4.05,-8.11,-8.97,0,*6B
1486803834.47,6300,10.31,73796.0,-4.05,-8.11,-8.93,0,*6E
1486803835.69,6301,10.31,73796.5,-4.05,-8.11,-8.93,0,*6F
1486803836.92,6302,10.31,73794.0,-4.05,-8.11,-8.93,0,*6C
1486803838.12,6303,10.31,73794.5,-4.05,-8.17,-8.97,0,*6F
1486803839.32,6304,10.31,73796.0,-4.05,-8.17,-8.97,0,*68
1486803840.52,6305,10.31,73794.8,-4.05,-8.17,-8.97,0,*69
1486803841.71,6306,10.25,73794.5,-4.05,-8.25,-8.97,0,*6B
1486803842.92,6307,10.31,73792.8,-4.05,-8.17,-8.97,0,*6B
1486803844.11,6308,10.25,73794.5,-4.05,-8.17,-8.97,0,*64
1486803845.31,6309,10.31,73794.3,-4.05,-8.17,-9.05,0,*6F
1486803846.54,6310,10.31,73798.3,-4.05,-8.11,-8.93,0,*6F
1486803847.74,6311,10.31,73794.8,-4.05,-8.17,-8.97,0,*6C
1486803848.97,6312,10.31,73796.5,-4.03,-8.11,-9.01,0,*61
1486803850.17,6313,10.31,73792.5,-4.05,-8.17,-9.05,0,*64
1486803851.39,6314,10.31,73794.3,-4.05,-8.11,-9.05,0,*65
1486803852.59,6315,10.31,73798.0,-4.03,-8.21,-9.05,0,*61
1486803853.78,6316,10.25,73792.5,-4.03,-8.25,-9.05,0,*66
1486803854.98,6317,10.25,73794.0,-4.03,-8.25,-9.05,0,*67
1486803856.17,6318,10.25,73794.5,-4.03,-8.25,-9.05,0,*68
1486803857.37,6319,10.31,73794.5,-4.05,-8.41,-9.23,0,*69
1486803858.56,6320,10.31,73792.0,-4.05,-8.33,-9.23,0,*66
1486803859.75,6321,10.31,73792.3,-4.03,-8.29,-9.19,0,*63
1486803860.94,6322,10.31,73796.3,-4.03,-8.29,-9.19,0,*60
1486803862.14,6323,10.31,73790.3,-4.03,-8.37,-9.19,0,*6E
1486803863.34,6324,10.31,73792.5,-4.05,-8.41,-9.27,0,*63
1486803864.53,6325,10.31,73794.0,-4.05,-8.41,-9.23,0,*66
1486803865.73,6326,10.31,73792.0,-4.05,-8.41,-9.23,0,*65
1486803866.93,6327,10.31,73792.0,-4.05,-8.41,-9.23,0,*64
1486803868.12,6328,10.31,73790.5,-4.03,-8.41,-9.23,0,*6D
1486803869.32,6329,10.31,73792.3,-4.05,-8.33,-9.23,0,*6F
1486803870.51,6330,10.25,73790.0,-4.03,-8.29,-9.19,0,*63
1486803871.72,6331,10.31,73788.8,-4.03,-8.29,-9.11,0,*6A
1486803872.91,6332,10.31,73786.8,-4.03,-8.33,-9.23,0,*63
1486803874.11,6333,10.31,73792.0,-4.03,-8.37,-9.19,0,*6F
1486803875.3,6334,10.31,73790.0,-4.03,-8.37,-9.23,0,*61
1486803876.49,6335,10.31,73794.5,-4.05,-8.33,-9.23,0,*62
1486803877.71,6336,10.31,73788.8,-4.03,-8.25,-9.11,0,*61
1486803878.91,6337,10.31,73788.0,-4.05,-8.41,-9.23,0,*65
1486803880.1,6338,10.31,73786.5,-4.03,-8.37,-9.23,0,*6D
1486803881.3,6339,10.31,73788.0,-4.03,-8.37,-9.19,0,*65
1486803882.49,6340,10.31,73792.0,-4.03,-8.29,-9.23,0,*6D
1486803883.68,6341,10.31,73790.8,-4.03,-8.41,-9.23,0,*62
1486803884.88,6342,10.31,73792.0,-4.05,-8.55,-9.27,0,*66
1486803886.07,6343,10.31,73794.0,-4.03,-8.41,-9.31,0,*63
1486803887.27,6344,10.31,73792.8,-4.03,-8.41,-9.23,0,*67
1486803888.49,6345,10.31,73794.5,-4.05,-8.59,-9.41,0,*6D
1486803889.72,6346,10.31,73794.3,-4.03,-8.55,-9.45,0,*60
1486803890.94,6347,10.31,73794.5,-4.03,-8.55,-9.37,0,*64
1486803892.17,6348,10.31,73790.5,-4.05,-8.55,-9.37,0,*6D
1486803893.4,6349,10.31,73792.8,-4.03,-8.55,-9.37,0,*6A
1486803894.62,6350,10.31,73796.3,-4.03,-8.41,-9.37,0,*67
1486803895.81,6351,10.31,73792.3,-4.03,-8.37,-9.23,0,*62
1486803897.04,6352,10.31,73792.5,-4.03,-8.37,-9.37,0,*64
1486803898.27,6353,10.31,73792.8,-4.05,-8.45,-9.37,0,*66
1486803899.46,6354,10.31,73794.8,-4.03,-8.37,-9.23,0,*67
1486803900.65,6355,10.31,73792.5,-4.03,-8.37,-9.31,0,*65
1486803901.84,6356,10.31,73790.3,-4.03,-8.41,-9.31,0,*67
1486803903.03,6357,10.31,73790.5,-4.03,-8.41,-9.23,0,*65
1486803904.23,6358,10.31,73790.5,-4.03,-8.41,-9.23,0,*6A
1486803905.46,6359,10.31,73794.3,-4.05,-8.45,-9.37,0,*6C
1486803906.68,6360,10.31,73794.8,-4.03,-8.63,-9.49,0,*6D
1486803907.9,6361,10.31,73794.3,-4.03,-8.63,-9.49,0,*6C
1486803909.12,6362,10.31,73792.3,-4.03,-8.55,-9.49,0,*6A
1486803910.35,6363,10.31,73794.8,-4.03,-8.67,-9.53,0,*61
1486803911.57,6364,10.31,73792.3,-4.05,-8.55,-9.41,0,*62
1486803912.76,6365,10.31,73792.8,-4.03,-8.41,-9.31,0,*67
1486803913.95,6366,10.31,73796.8,-4.03,-8.41,-9.31,0,*64
1486803915.17,6367,10.31,73798.3,-4.03,-8.51,-9.31,0,*64
1486803916.36,6368,10.31,73794.0,-4.03,-8.41,-9.23,0,*69
1486803917.56,6369,10.31,73794.5,-4.05,-8.45,-9.27,0,*6E
1486803918.76,6370,10.31,73794.5,-4.03,-8.37,-9.19,0,*68
1486803919.95,6371,10.31,73794.0,-4.03,-8.41,-9.31,0,*62
1486803921.17,6372,10.31,73794.3,-4.03,-8.41,-9.37,0,*67
1486803922.37,6373,10.31,73794.0,-4.03,-8.37,-9.23,0,*62
1486803923.55,6374,10.31,73794.3,-4.03,-8.29,-9.23,0,*6A
1486803924.75,6375,10.31,73796.8,-4.03,-8.41,-9.27,0,*61
1486803925.95,6376,10.31,73794.0,-4.03,-8.37,-9.23,0,*67
1486803927.14,6377,10.31,73794.3,-4.03,-8.37,-9.23,0,*66
1486803928.33,6378,10.31,73796.3,-4.03,-8.37,-9.23,0,*69
1486803929.53,6379,10.31,73796.5,-4.03,-8.37,-9.23,0,*68
1486803930.72,6380,10.31,73794.8,-4.03,-8.37,-9.31,0,*6D
1486803931.91,6381,10.31,73792.3,-4.03,-8.29,-9.19,0,*69
1486803933.12,6382,10.31,73792.0,-4.01,-8.29,-9.19,0,*68
1486803934.35,6383,10.31,73790.8,-4.01,-8.37,-9.19,0,*66
1486803935.56,6384,10.31,73794.3,-4.01,-8.29,-9.19,0,*6E
1486803936.81,6385,10.31,73792.3,-4.01,-8.25,-9.11,0,*6B
1486803938.06,6386,10.31,73794.0,-4.01,-8.29,-9.11,0,*64
1486803939.25,6387,10.31,73792.0,-4.03,-8.29,-9.19,0,*6F
1486803940.49,6388,10.31,73788.8,-4.01,-8.29,-9.11,0,*6A
1486803941.71,6389,10.31,73790.3,-3.99,-8.25,-9.15,0,*65
1486803942.91,6390,10.31,73794.0,-4.03,-8.37,-9.23,0,*6F
1486803944.1,6391,10.31,73794.5,-4.03,-8.37,-9.31,0,*6D
1486803945.38,6392,10.31,73792.3,-4.01,-8.51,-9.37,0,*6A
1486803946.63,6393,10.31,73794.5,-4.01,-8.41,-9.37,0,*6A
1486803947.88,6394,10.31,73792.3,-4.01,-8.41,-9.37,0,*6D
1486803949.13,6395,10.31,73788.8,-4.01,-8.41,-9.37,0,*6C
1486803950.4,6396,10.31,73788.8,-4.01,-8.51,-9.45,0,*6B
1486803951.66,6397,10.31,73792.8,-4.01,-8.41,-9.45,0,*6B
1486803952.93,6398,10.31,73792.0,-4.01,-8.51,-9.45,0,*65
1486803954.18,6399,10.31,73788.5,-4.01,-8.55,-9.45,0,*60
1486803955.43,6400,10.31,73792.8,-4.01,-8.63,-9.49,0,*6E
1486803956.68,6401,10.31,73792.0,-4.01,-8.63,-9.45,0,*63
1486803957.93,6402,10.31,73788.5,-4.01,-8.55,-9.49,0,*69
1486803959.15,6403,10.31,73788.5,-4.03,-8.63,-9.57,0,*60
1486803960.37,6404,10.31,73794.0,-4.03,-8.75,-9.57,0,*60
1486803961.61,6405,10.31,73790.3,-4.01,-8.75,-9.57,0,*63
1486803962.85,6406,10.31,73792.8,-4.01,-8.67,-9.57,0,*63
1486803964.1,6407,10.31,73788.8,-4.01,-8.67,-9.57,0,*62
1486803965.34,6408,10.31,73788.3,-4.01,-8.67,-9.57,0,*6D
1486803966.58,6409,10.31,73788.3,-4.01,-8.67,-9.57,0,*6C
1486803967.82,6410,10.31,73790.8,-4.01,-8.75,-9.57,0,*67
1486803969.07,6411,10.31,73788.3,-4.01,-8.67,-9.57,0,*65
1486803970.31,6412,10.31,73790.3,-4.01,-8.67,-9.57,0,*66
1486803971.56,6413,10.31,73790.8,-4.01,-8.67,-9.49,0,*68
1486803972.78,6414,10.31,73790.3,-3.99,-8.59,-9.45,0,*68
1486803974.0,6415,10.31,73790.3,-4.03,-8.55,-9.49,0,*6D
1486803975.23,6416,10.31,73790.3,-4.03,-8.55,-9.49,0,*6E
1486803976.48,6417,10.31,73790.3,-4.03,-8.51,-9.45,0,*67
1486803977.72,6418,10.31,73792.8,-4.03,-8.51,-9.45,0,*68
1486803978.95,6419,10.31,73794.3,-4.03,-8.55,-9.45,0,*6D
1486803980.23,6420,10.31,73788.5,-4.01,-8.51,-9.45,0,*61
1486803981.5,6421,10.31,73788.5,-4.01,-8.51,-9.45,0,*60
1486803982.78,6422,10.31,73788.5,-4.01,-8.51,-9.37,0,*66
1486803984.02,6423,10.31,73786.0,-4.01,-8.63,-9.57,0,*60
1486803985.27,6424,10.31,73786.5,-4.01,-8.63,-9.57,0,*67
1486803986.52,6425,10.31,73784.3,-4.01,-8.75,-9.49,0,*6E
1486803987.76,6426,10.31,73788.3,-4.01,-8.67,-9.57,0,*61
1486803989.0,6427,10.31,73790.5,-4.01,-8.67,-9.57,0,*60
1486803990.25,6428,10.31,73788.5,-4.01,-8.75,-9.57,0,*6C
1486803991.49,6429,10.31,73788.5,-4.01,-8.75,-9.61,0,*68
1486803992.73,6430,10.31,73788.3,-4.01,-8.67,-9.57,0,*66
1486803993.95,6431,10.31,73790.5,-4.03,-8.75,-9.57,0,*66
1486803995.17,6432,10.31,73790.3,-4.03,-8.63,-9.57,0,*62
1486803996.39,6433,10.31,73786.8,-4.03,-8.75,-9.57,0,*64
1486803997.61,6434,10.31,73786.8,-4.03,-8.63,-9.49,0,*6B
1486803998.83,6435,10.31,73790.0,-4.03,-8.63,-9.49,0,*6A
1486804000.05,6436,10.31,73790.3,-4.03,-8.55,-9.49,0,*6C
1486804001.28,6437,10.31,73788.8,-4.03,-8.55,-9.49,0,*6D
1486804002.52,6438,10.31,73786.8,-4.03,-8.51,-9.49,0,*66
1486804003.77,6439,10.31,73790.3,-4.03,-8.51,-9.37,0,*6E
1486804005.02,6440,10.31,73792.5,-4.03,-8.51,-9.37,0,*60
1486804006.27,6441,10.31,73786.5,-4.03,-8.51,-9.45,0,*64
1486804007.5,6442,10.31,73790.0,-4.03,-8.41,-9.37,0,*63
1486804008.74,6443,10.31,73788.8,-4.01,-8.51,-9.31,0,*67
1486804009.96,6444,10.31,73788.0,-4.01,-8.41,-9.31,0,*61
1486804011.17,6445,10.31,73790.0,-4.01,-8.41,-9.31,0,*60
1486804012.45,6446,10.31,73790.8,-4.01,-8.51,-9.37,0,*64
1486804013.7,6447,10.31,73792.8,-4.01,-8.55,-9.37,0,*61
1486804014.96,6448,10.31,73790.0,-4.01,-8.55,-9.45,0,*6B
1486804016.21,6449,10.31,73790.0,-4.01,-8.55,-9.45,0,*6A
1486804017.46,6450,10.31,73790.3,-4.01,-8.55,-9.49,0,*6E
1486804018.71,6451,10.31,73788.5,-4.01,-8.55,-9.49,0,*6F
1486804019.95,6452,10.31,73790.0,-4.01,-8.55,-9.49,0,*6C
1486804021.23,6453,10.31,73792.0,-4.01,-8.51,-9.45,0,*65
1486804022.51,6454,10.31,73788.8,-4.01,-8.51,-9.49,0,*6E
1486804023.76,6455,10.31,73786.8,-3.99,-8.51,-9.41,0,*61
1486804025.01,6456,10.31,73788.8,-3.99,-8.51,-9.45,0,*66
1486804026.26,6457,10.31,73786.0,-4.01,-8.55,-9.45,0,*65
1486804027.51,6458,10.31,73788.3,-4.01,-8.41,-9.37,0,*6A
1486804028.76,6459,10.31,73788.0,-4.01,-8.41,-9.45,0,*6E
1486804030.04,6460,10.31,73788.0,-4.01,-8.51,-9.45,0,*65
1486804031.29,6461,10.31,73786.8,-4.01,-8.41,-9.45,0,*65
1486804032.54,6462,10.31,73788.8,-4.01,-8.41,-9.37,0,*63
1486804033.79,6463,10.38,73788.5,-4.01,-8.37,-9.37,0,*63
1486804035.04,6464,10.31,73782.8,-4.01,-8.41,-9.37,0,*65
1486804036.26,6465,10.31,73784.3,-4.01,-8.41,-9.31,0,*62
1486804037.46,6466,10.38,73788.8,-3.99,-8.25,-9.27,0,*62
1486804038.65,6467,10.31,73788.5,-3.99,-8.33,-9.27,0,*64
1486804039.87,6468,10.31,73786.8,-4.01,-8.37,-9.31,0,*6E
1486804041.14,6469,10.38,73790.0,-4.01,-8.51,-9.37,0,*69
1486804042.39,6470,10.31,73784.3,-4.01,-8.41,-9.45,0,*65
1486804043.67,6471,10.31,73786.0,-4.01,-8.51,-9.45,0,*65
1486804044.92,6472,10.31,73788.8,-4.01,-8.63,-9.49,0,*6B
1486804046.17,6473,10.31,73786.0,-3.99,-8.51,-9.41,0,*65
1486804047.39,6474,10.31,73786.5,-3.99,-8.45,-9.41,0,*67
1486804048.62,6475,10.38,73788.5,-3.99,-8.45,-9.41,0,*66
1486804049.84,6476,10.31,73790.5,-3.99,-8.45,-9.41,0,*65
1486804051.12,6477,10.31,73788.5,-4.01,-8.51,-9.37,0,*66
1486804052.35,6478,10.31,73788.0,-3.99,-8.37,-9.41,0,*6E
1486804053.6,6479,10.31,73790.3,-4.01,-8.41,-9.37,0,*69
1486804054.79,6480,10.31,73790.0,-3.99,-8.37,-9.31,0,*6E
1486804056.04,6481,10.31,73788.8,-4.01,-8.37,-9.37,0,*6F
1486804057.23,6482,10.31,73790.8,-3.99,-8.33,-9.27,0,*6F
1486804058.45,6483,10.38,73792.5,-4.01,-8.37,-9.31,0,*6B
1486804059.64,6484,10.38,73792.5,-3.99,-8.33,-9.31,0,*6E
1486804060.86,6485,10.31,73790.5,-3.97,-8.25,-9.19,0,*6C
1486804062.09,6486,10.31,73786.8,-3.97,-8.25,-9.27,0,*62
1486804063.28,6487,10.31,73786.0,-3.99,-8.33,-9.27,0,*6A
1486804064.5,6488,10.38,73790.3,-3.97,-8.33,-9.27,0,*6B
1486804065.75,6489,10.31,73788.3,-4.01,-8.37,-9.37,0,*67
1486804066.94,6490,10.31,73790.3,-3.99,-8.33,-9.31,0,*6B
1486804068.13,6491,10.31,73790.5,-3.99,-8.33,-9.27,0,*6D
1486804069.32,6492,10.31,73790.0,-3.99,-8.37,-9.31,0,*6D
1486804070.52,6493,10.31,73790.0,-3.99,-8.37,-9.31,0,*6C
1486804071.73,6494,10.38,73792.3,-3.99,-8.33,-9.41,0,*68
1486804072.95,6495,10.31,73790.0,-3.99,-8.33,-9.41,0,*69
1486804074.14,6496,10.38,73792.8,-3.99,-8.37,-9.31,0,*69
1486804075.35,6497,10.38,73794.8,-3.99,-8.37,-9.27,0,*6F
1486804076.54,6498,10.38,73794.5,-3.99,-8.33,-9.27,0,*64
1486804077.76,6499,10.31,73790.0,-3.97,-8.25,-9.31,0,*6B
1486804078.96,6500,10.31,73790.8,-3.99,-8.25,-9.27,0,*63
1486804080.15,6501,10.38,73790.8,-3.99,-8.33,-9.27,0,*65
1486804081.4,6502,10.38,73794.3,-3.97,-8.37,-9.53,0,*6F
1486804082.68,6503,10.38,73792.8,-3.97,-8.51,-9.45,0,*69
1486804083.91,6504,10.38,73792.0,-3.99,-8.59,-9.53,0,*6F
1486804085.13,6505,10.38,73792.5,-3.99,-8.59,-9.45,0,*69
1486804086.36,6506,10.38,73794.5,-3.99,-8.59,-9.53,0,*6D
1486804087.59,6507,10.31,73792.8,-3.99,-8.71,-9.53,0,*66
1486804088.82,6508,10.38,73794.3,-3.99,-8.71,-9.57,0,*6D
1486804090.02,6509,10.31,73794.8,-3.99,-8.71,-9.67,0,*6F
1486804091.23,6510,10.38,73796.0,-3.99,-8.63,-9.67,0,*64
1486804092.43,6511,10.31,73794.3,-3.99,-8.63,-9.67,0,*65
1486804093.66,6512,10.38,73798.5,-3.97,-8.71,-9.67,0,*6B
1486804094.89,6513,10.38,73792.0,-3.97,-8.71,-9.67,0,*6A
1486804096.09,6514,10.38,73796.0,-3.99,-8.75,-9.71,0,*60
1486804097.3,6515,10.38,73796.3,-3.99,-8.63,-9.67,0,*61
1486804098.52,6516,10.31,73794.5,-3.99,-8.59,-9.53,0,*6C
1486804099.78,6517,10.38,73792.3,-3.99,-8.51,-9.53,0,*65
1486804101.03,6518,10.38,73794.5,-3.99,-8.51,-9.45,0,*6D
1486804102.28,6519,10.38,73796.5,-3.99,-8.51,-9.45,0,*6C
1486804103.54,6520,10.38,73796.5,-3.97,-8.37,-9.53,0,*6F
1486804104.79,6521,10.38,73796.8,-3.97,-8.45,-9.45,0,*6C
1486804106.02,6522,10.38,73798.5,-3.99,-8.37,-9.45,0,*64
1486804107.21,6523,10.38,73792.3,-3.99,-8.45,-9.31,0,*63
1486804108.41,6524,10.31,73794.8,-3.99,-8.37,-9.31,0,*61
1486804109.59,6525,10.31,73792.8,-3.99,-8.33,-9.31,0,*64
1486804110.78,6526,10.38,73796.0,-3.99,-8.25,-9.31,0,*60
1486804112.0,6527,10.38,73794.3,-3.97,-8.33,-9.27,0,*6F
1486804113.23,6528,10.38,73798.3,-3.97,-8.25,-9.19,0,*6A